Volver al catálogo

COSMOS 2251 DEB

ActivoLEO
NORAD 34590·DEBRIS·🇷🇺 Russia

Lanzado Jun 16, 1993 desde Plesetsk Cosmodrome

Loading…

Próximos Pases (próximas 24 horas)

TLE

ActualizadoSource: Space-Track

Época: Sep 14, 2026, 10:14 UTC

1 34590U 93036WC  26257.42674859  .00000241  00000-0  61037-4 0  9997
2 34590  74.0445 160.9060 0070053 221.2052 262.6032 14.55099968931301

Sigue COSMOS 2251 DEB en tiempo real con AllMySat

Download on the App Store